Location: Hoyos del Collado
(40.3594°N, 5.2003°W)
Time: 21:02:51
(UTC+00:00)

ISS - Pass Details

Date: 28 June 2024
Orbit: 409 x 423 km, 51.6° (Epoch: 22 July)

Event Time Altitude Azimuth Distance (km) Brightness Sun altitude
Exits shadow 04:05:46 - 283° (WNW) 2,374 -0.3 -8.2°
Rises 04:05:51 0° 284° (WNW) 2,346 -0.3 -8.1°
Reaches altitude 10° 04:08:35 10° 308° (NW) 1,489 -1.1 -7.7°
Maximum altitude 04:10:38 15° 346° (NNW) 1,218 -1.1 -7.4°
Drops below altitude 10° 04:12:42 10° 24° (NNE) 1,498 0.2 -7.1°
Sets 04:15:29 0° 49° (NE) 2,368 2.8 -6.7°
